Kankakee, IL

10:19 AM CDT on April 24, 2017 (GMT -0500)
Greater Kankakee

Weather History for KIKK - August, 2014

Change the Weather History Date:

Friday, August 15, 2014

  Actual Average Record
Temperature  
Mean Temperature 60 °F -  
Max Temperature 77 °F 82 °F 98 °F (1988)
Min Temperature 43 °F 60 °F 43 °F (2014)
Degree Days  
Heating Degree Days 5    
Growing Degree Days 10 (Base 50)    
Moisture  
Dew Point 52 °F    
Average Humidity 75    
Maximum Humidity 100    
Minimum Humidity 42    
Precipitation  
Precipitation 0.00 in - - ()
Sea Level Pressure  
Sea Level Pressure 30.06 in    
Wind  
Wind Speed 1 mph (SSW)    
Max Wind Speed 8 mph    
Max Gust Speed -    
Visibility 10 miles    
Events Fog    
Averages and records for this station are not official NWS values.
T = Trace of Precipitation, MM = Missing Value Source: NWS Daily Summary

Daily Weather History Graph

Daily Weather History Graph

Search for Another Location

Airport or City:

Trip Planner

Search our weather history database for the weather conditions in past years. The results will help you decide how hot, cold, wet, or windy it might be!

Date:

Astronomy

Aug. 15, 2014 Rise Set
Actual Time 6:01 AM CDT 7:49 PM CDT
Civil Twilight 5:31 AM CDT 8:19 PM CDT
Nautical Twilight 4:55 AM CDT 8:55 PM CDT
Astronomical Twilight 4:16 AM CDT 9:33 PM CDT
Moon 10:48 PM CDT (8/15) 11:46 AM CDT (8/15)
Length of Visible Light 14h 47m
Length of Day
13h 48m
Waning Gibbous, 69% of the Moon is Illuminated
Aug 15
Waning Gibbous
Aug 17
Last Quarter
Aug 25
New
Sep 2
First Quarter
Sep 8
Full

Hourly Weather History & Observations

Time (CDT) Temp. Dew Point Humidity Pressure Visibility Wind Dir Wind Speed Gust Speed Precip Events Conditions
12:15 AM 49.5 °F 48.2 °F 95% 30.08 in 10.0 mi Calm Calm - N/A   Clear
12:35 AM 50.2 °F 48.7 °F 95% 30.08 in 10.0 mi Calm Calm - N/A   Clear
12:55 AM 50.0 °F 48.4 °F 94% 30.07 in 10.0 mi Calm Calm - N/A   Clear
1:15 AM 50.0 °F 48.4 °F 94% 30.07 in 10.0 mi Calm Calm - N/A   Clear
1:35 AM 48.9 °F 47.7 °F 95% 30.07 in 10.0 mi Calm Calm - N/A   Clear
1:55 AM 48.0 °F 46.9 °F 96% 30.08 in 10.0 mi Calm Calm - N/A   Clear
2:15 AM 46.9 °F 46.0 °F 97% 30.08 in 10.0 mi Calm Calm - N/A   Clear
2:35 AM 47.1 °F 46.2 °F 97% 30.09 in 10.0 mi Calm Calm - N/A   Clear
2:55 AM 47.7 °F 46.8 °F 97% 30.09 in 10.0 mi Calm Calm - N/A   Clear
3:15 AM 47.1 °F 46.2 °F 97% 30.09 in 10.0 mi Calm Calm - N/A   Clear
3:35 AM 46.9 °F 46.2 °F 97% 30.09 in 10.0 mi Calm Calm - N/A   Clear
3:55 AM 47.5 °F 46.8 °F 97% 30.08 in 10.0 mi Calm Calm - N/A   Clear
4:15 AM 47.1 °F 46.2 °F 97% 30.08 in 10.0 mi Calm Calm - N/A   Clear
4:35 AM 46.9 °F 46.4 °F 98% 30.08 in 10.0 mi Calm Calm - N/A   Clear
4:55 AM 47.8 °F 47.3 °F 98% 30.08 in 10.0 mi Calm Calm - N/A   Clear
5:15 AM 46.4 °F 46.4 °F 100% 30.08 in 10.0 mi Calm Calm - N/A   Clear
5:35 AM 45.9 °F 45.3 °F 98% 30.08 in 7.0 mi Calm Calm - N/A   Clear
5:55 AM 43.9 °F 43.3 °F 98% 30.09 in 0.2 mi Calm Calm - N/A Fog Fog
6:15 AM 44.6 °F 44.1 °F 98% 30.09 in 2.0 mi Calm Calm - N/A   Clear
6:35 AM 46.2 °F 45.9 °F 99% 30.10 in 5.0 mi Calm Calm - N/A   Clear
6:55 AM 48.2 °F 47.8 °F 99% 30.10 in 10.0 mi Calm Calm - N/A   Clear
7:15 AM 50.2 °F 49.3 °F 97% 30.12 in 10.0 mi Calm Calm - N/A   Clear
7:35 AM 52.5 °F 49.5 °F 89% 30.12 in 10.0 mi Calm Calm - N/A   Clear
7:55 AM 55.9 °F 50.4 °F 82% 30.12 in 10.0 mi Calm Calm - N/A   Clear
8:15 AM 58.8 °F 51.6 °F 77% 30.12 in 10.0 mi South 3.5 mph - N/A   Clear
8:35 AM 61.0 °F 50.4 °F 68% 30.12 in 10.0 mi South 3.5 mph - N/A   Clear
8:55 AM 62.2 °F 49.6 °F 63% 30.11 in 10.0 mi ESE 5.8 mph - N/A   Clear
9:15 AM 64.0 °F 50.0 °F 60% 30.12 in 10.0 mi SE 4.6 mph - N/A   Clear
9:35 AM 65.7 °F 49.5 °F 56% 30.12 in 10.0 mi SE 5.8 mph - N/A   Clear
9:55 AM 67.1 °F 48.7 °F 52% 30.11 in 10.0 mi South 5.8 mph - N/A   Clear
10:15 AM 68.7 °F 49.3 °F 50% 30.12 in 10.0 mi SE 6.9 mph - N/A   Clear
10:35 AM 69.1 °F 49.6 °F 50% 30.11 in 10.0 mi SE 5.8 mph - N/A   Clear
10:55 AM 70.7 °F 47.5 °F 44% 30.11 in 10.0 mi SSE 5.8 mph - N/A   Clear
11:15 AM 71.6 °F 49.3 °F 45% 30.11 in 10.0 mi South 5.8 mph - N/A   Clear
11:35 AM 71.8 °F 49.1 °F 45% 30.11 in 10.0 mi SE 4.6 mph - N/A   Clear
11:55 AM 73.4 °F 51.8 °F 47% 30.10 in 10.0 mi Calm Calm - N/A   Clear
12:15 PM 73.2 °F 51.8 °F 47% 30.09 in 10.0 mi SW 6.9 mph - N/A   Clear
12:35 PM 73.4 °F 51.6 °F 46% 30.09 in 10.0 mi SSW 4.6 mph - N/A   Clear
12:55 PM 74.1 °F 51.4 °F 45% 30.09 in 10.0 mi SW 3.5 mph - N/A   Clear
1:15 PM 75.0 °F 51.8 °F 44% 30.08 in 10.0 mi Calm Calm - N/A   Clear
1:35 PM 74.8 °F 51.3 °F 44% 30.07 in 10.0 mi South 4.6 mph - N/A   Clear
1:55 PM 75.6 °F 51.8 °F 43% 30.06 in 10.0 mi SW 5.8 mph - N/A   Clear
2:15 PM 76.5 °F 52.7 °F 43% 30.06 in 10.0 mi South 5.8 mph - N/A   Clear
2:35 PM 75.7 °F 51.1 °F 42% 30.04 in 10.0 mi West 6.9 mph - N/A   Clear
2:55 PM 77.0 °F 53.1 °F 43% 30.04 in 10.0 mi West 8.1 mph - N/A   Clear
3:15 PM 76.1 °F 53.2 °F 45% 30.04 in 10.0 mi West 5.8 mph - N/A   Clear
3:35 PM 75.0 °F 54.5 °F 49% 30.03 in 10.0 mi SSW 6.9 mph - N/A   Clear
3:55 PM 74.3 °F 55.2 °F 51% 30.03 in 10.0 mi West 8.1 mph - N/A   Clear
4:15 PM 73.4 °F 55.9 °F 54% 30.03 in 10.0 mi West 6.9 mph - N/A   Clear
4:35 PM 72.7 °F 55.6 °F 55% 30.03 in 10.0 mi WSW 5.8 mph - N/A   Clear
4:55 PM 71.2 °F 56.1 °F 59% 30.03 in 10.0 mi WSW 4.6 mph - N/A   Clear
5:15 PM 70.9 °F 58.5 °F 65% 30.02 in 10.0 mi Calm Calm - N/A   Clear
5:35 PM 70.7 °F 60.6 °F 70% 30.02 in 10.0 mi SSW 3.5 mph - N/A   Clear
5:55 PM 70.2 °F 59.7 °F 69% 30.01 in 10.0 mi South 3.5 mph - N/A   Clear
6:15 PM 69.1 °F 62.2 °F 79% 30.00 in 10.0 mi Calm Calm - N/A   Clear
6:35 PM 69.1 °F 59.7 °F 72% 30.00 in 10.0 mi Calm Calm - N/A   Clear
6:55 PM 68.4 °F 60.3 °F 75% 30.00 in 10.0 mi Calm Calm - N/A   Clear
7:15 PM 66.7 °F 62.1 °F 85% 30.00 in 10.0 mi Calm Calm - N/A   Clear
7:35 PM 65.5 °F 60.6 °F 84% 30.00 in 10.0 mi Calm Calm - N/A   Clear
7:55 PM 64.4 °F 60.8 °F 88% 30.00 in 10.0 mi Calm Calm - N/A   Clear
8:15 PM 63.5 °F 60.1 °F 89% 30.00 in 10.0 mi Calm Calm - N/A   Clear
8:35 PM 63.3 °F 58.1 °F 83% 30.00 in 10.0 mi Calm Calm - N/A   Clear
8:55 PM 60.8 °F 57.2 °F 88% 30.01 in 10.0 mi Calm Calm - N/A   Clear
9:15 PM 61.2 °F 57.6 °F 88% 30.01 in 10.0 mi Calm Calm - N/A   Clear
9:35 PM 60.8 °F 57.6 °F 89% 30.01 in 10.0 mi Calm Calm - N/A   Clear
9:55 PM 60.8 °F 58.5 °F 92% 30.01 in 10.0 mi Calm Calm - N/A   Clear
10:15 PM 60.6 °F 58.3 °F 92% 30.01 in 10.0 mi Calm Calm - N/A   Clear
10:35 PM 59.9 °F 57.4 °F 91% 30.01 in 10.0 mi Calm Calm - N/A   Clear
10:55 PM 59.0 °F 57.2 °F 94% 30.01 in 10.0 mi Calm Calm - N/A   Clear
11:15 PM 59.2 °F 56.3 °F 90% 30.00 in 10.0 mi Calm Calm - N/A   Clear
11:35 PM 59.0 °F 56.1 °F 90% 30.00 in 10.0 mi Calm Calm - N/A   Clear
11:55 PM 59.9 °F 56.5 °F 88% 30.00 in 10.0 mi Calm Calm - N/A   Clear